GFSGL_500_rhum_132.txt.gz
RH
19 28 48 46 48 54 51 43 38 35 36 34 31 21 29 25 21 19 31 39 40 43 40 52 56 61 48 42 51 46 43 49 52 56 60 81 80 78 89 85 80 85 86
26 21 24 36 46 50 60 53 40 40 45 35 36 37 35 38 39 50 51 55 43 45 52 85 97 95 74 64 64 74 76 68 67 80 75 83 82 75 81 84 86 85 83
24 28 24 21 23 36 47 60 58 46 45 50 48 56 56 59 72 63 56 58 54 61 77 86 90 90 81 76 70 76 100 87 80 82 92 89 99 94 92 89 92 84 80
32 24 32 31 21 22 26 31 40 53 57 64 71 74 79 71 66 64 80 84 94 90 97 94 88 77 76 83 83 79 76 85 98 94 83 82 82 82 88 86 86 85 88
68 62 41 42 42 40 36 39 42 44 62 66 64 66 75 89 94 92 88 82 79 84 40 30 42 43 65 51 43 40 57 67 73 73 63 72 70 65 76 86 88 82 81
89 82 54 46 52 48 48 60 67 69 80 87 80 79 79 71 60 55 40 31 33 30 32 32 17 22 35 60 87 90 97 64 70 67 60 64 68 70 64 78 83 88 94
98 92 89 88 54 45 48 49 52 70 74 60 62 53 49 41 37 43 49 59 77 82 67 46 22 36 40 69 81 85 83 80 75 71 66 64 85 83 81 80 81 75 76
73 85 90 97 74 66 49 46 47 49 64 59 55 52 50 48 67 68 45 54 58 66 75 85 82 70 78 87 84 86 84 86 87 82 60 53 57 82 80 80 85 88 89
68 97 95 97 95 68 59 38 30 40 42 52 49 51 56 61 70 86 63 56 52 67 86 82 83 83 80 77 80 83 92 92 90 91 90 90 93 95 79 60 71 76 77
97 82 92 95 97 91 66 53 46 53 53 47 74 75 86 74 87 83 84 86 76 71 79 76 74 77 84 85 85 87 84 90 98 97 94 93 96 98 96 95 90 92 94
95 89 94 95 97 97 87 83 85 69 70 73 83 96 95 94 96 91 97 97 96 83 86 93 90 78 72 76 86 92 93 94 93 92 96 96 95 94 85 90 98 98 98
93 96 79 82 96 92 95 97 98 94 90 93 97 97 97 97 96 95 96 93 91 89 91 99 92 83 97 97 97 96 94 96 97 96 92 88 95 98 97 96 96 96 97
98 97 99 97 97 97 96 98 97 98 98 96 97 97 98 91 94 93 98 98 97 96 96 100 98 97 98 97 96 97 98 98 100 98 98 96 98 99 94 92 88 89 90
96 98 100 96 97 97 97 96 97 97 98 97 98 98 98 98 98 96 99 97 97 96 99 99 98 96 95 91 80 62 52 64 80 87 92 88 93 85 81 76 65 53 55
96 96 97 95 96 98 98 96 97 96 96 97 97 96 95 96 96 95 96 95 94 94 93 93 85 79 74 60 56 44 33 28 20 9 9 9 9 17 19 15 9 9 12
88 94 96 94 96 93 95 95 96 95 93 93 93 91 88 87 81 73 67 58 49 29 29 35 29 19 10 6 6 6 6 7 8 8 9 9 9 8 8 8 8 8 8
95 93 93 95 93 92 82 80 86 72 58 57 46 37 34 25 14 16 16 10 6 5 5 5 6 7 6 6 5 4 4 4 4 4 5 5 6 7 7 7 7 7 10
84 85 85 85 82 71 69 68 65 60 46 42 40 21 14 6 5 5 5 6 7 7 6 6 5 5 5 4 4 4 4 4 4 4 3 3 3 3 4 6 8 10 14
68 52 52 53 48 48 38 32 26 18 9 6 4 4 5 6 7 8 8 7 7 7 6 6 5 5 4 4 4 4 4 4 4 4 3 3 4 6 7 7 7 8 8
47 41 29 24 20 13 10 6 4 4 5 5 6 7 8 9 10 9 8 8 7 7 8 7 6 5 6 6 6 7 7 6 5 5 6 6 5 5 4 4 4 4 5
33 19 14 12 5 4 6 7 8 8 8 10 10 9 9 10 12 10 8 8 9 10 10 7 7 7 8 10 12 10 9 7 6 7 6 5 4 4 4 4 5 8 12
12 9 5 6 8 9 10 11 12 11 10 10 10 11 12 12 12 11 11 12 12 11 8 6 6 7 10 13 12 8 7 9 9 7 6 5 5 8 13 21 24 36 100
5 8 10 10 10 10 11 11 11 11 12 14 15 15 16 16 17 15 14 11 10 9 10 13 17 18 17 12 7 9 13 12 9 8 7 9 18 19 21 36 34 100 81
9 10 12 13 15 17 15 10 7 6 6 7 8 11 16 17 16 15 13 12 12 14 19 24 17 19 14 10 12 16 16 13 11 10 10 15 19 19 24 53 66 73 54
12 14 19 17 11 6 6 6 5 5 5 5 5 5 10 18 22 22 20 20 22 25 29 22 12 15 10 16 21 22 18 15 14 14 14 17 21 22 34 41 54 76 90
17 18 11 6 7 7 7 7 6 7 7 7 6 6 6 9 24 35 35 33 33 35 32 18 14 13 13 21 26 25 22 20 19 20 18 18 23 29 32 40 63 79 83

GFSGL_500_rhum_135.txt.gz
RH
26 24 55 50 53 54 60 61 48 46 30 27 21 19 14 28 25 23 14 16 22 30 39 45 42 48 54 58 46 50 68 66 55 60 62 66 68 78 75 83 89 92 88
98 45 23 60 44 47 49 55 59 53 44 35 34 31 27 30 47 40 32 36 48 54 48 43 46 64 72 74 58 62 66 70 69 66 72 84 88 87 86 80 81 84 84
54 29 19 21 47 52 47 43 47 46 40 39 38 35 42 45 51 46 47 57 57 53 53 54 62 86 88 85 71 76 71 72 79 84 83 82 81 89 94 83 81 89 84
78 89 57 24 20 28 48 45 42 48 43 50 56 54 44 47 63 64 60 70 68 70 78 89 85 95 93 82 72 72 70 69 68 61 72 73 76 72 71 77 70 70 88
91 97 83 97 33 23 20 30 39 42 53 51 52 56 70 76 77 78 76 78 85 91 84 80 89 43 28 29 30 46 44 60 87 84 88 62 58 63 53 58 63 64 74
94 92 98 98 62 36 29 20 21 26 40 43 52 61 74 77 83 84 87 94 90 74 35 36 38 36 42 34 41 36 46 87 89 95 93 93 75 71 66 58 61 74 74
54 71 92 94 91 55 43 42 31 31 41 46 50 63 84 86 82 82 71 50 42 38 52 76 90 78 82 83 77 64 71 67 88 95 96 97 93 92 86 73 54 64 78
49 64 82 91 97 86 70 54 53 57 58 52 60 72 91 74 64 55 55 55 73 84 76 62 74 84 86 90 91 88 83 82 91 91 93 92 92 85 94 86 88 88 90
42 53 83 82 81 87 96 80 60 59 61 71 73 75 68 72 60 55 74 79 88 96 90 70 82 72 72 71 81 83 86 96 94 90 93 93 96 98 96 94 94 94 88
32 39 48 60 78 79 83 86 79 68 72 60 70 69 64 77 76 74 83 70 88 96 97 86 92 86 95 81 85 91 84 81 78 90 99 91 96 96 93 90 92 100 99
22 34 45 34 66 78 84 89 94 88 82 72 58 63 57 77 80 94 97 84 91 90 90 92 97 97 97 88 88 91 88 89 91 89 91 92 95 87 83 83 88 85 87
49 46 43 40 59 62 77 83 92 97 96 84 74 85 68 68 85 96 97 97 96 96 96 96 98 99 95 96 96 94 95 97 96 93 90 95 95 96 95 93 92 94 96
46 87 99 100 94 82 87 89 93 96 95 92 95 95 87 83 97 100 97 95 96 97 97 98 97 95 100 98 98 97 96 88 81 77 75 72 61 55 44 64 58 74 92
82 96 97 96 100 97 93 94 97 96 98 97 97 96 97 97 97 96 96 97 97 95 97 97 97 96 95 94 94 88 81 74 59 46 22 20 18 14 12 10 9 8 7
81 92 96 97 98 95 98 97 97 97 96 96 95 96 97 97 97 96 97 96 96 96 95 92 84 77 68 53 44 30 13 13 10 7 4 3 3 3 3 3 3 4 5
85 94 95 96 95 96 96 97 97 97 97 98 97 97 96 96 96 94 93 93 94 92 76 47 32 15 8 7 6 5 5 4 4 4 3 3 4 4 4 4 4 4 3
92 92 97 88 84 80 92 96 96 96 95 96 94 94 95 93 93 92 76 41 18 8 6 6 7 7 5 4 5 5 4 4 4 4 4 4 5 5 5 5 4 4 5
97 98 99 98 87 79 79 82 87 92 89 89 90 84 77 65 26 9 6 6 6 6 7 7 6 6 7 6 4 4 4 4 4 4 6 7 8 7 5 4 4 6 6
93 94 95 85 82 80 72 59 44 36 31 22 13 9 7 7 7 6 7 8 7 7 7 7 8 8 6 4 4 4 5 6 6 7 8 8 7 6 4 5 7 6 5
71 84 80 73 51 49 49 48 43 31 20 10 6 7 7 6 7 8 7 7 8 8 9 10 10 8 6 5 5 6 8 10 12 12 10 6 4 5 8 8 6 6 6
64 44 42 39 29 18 13 8 6 5 6 6 7 7 8 8 8 10 11 10 10 11 12 12 10 9 8 8 11 14 17 18 14 10 7 4 5 8 9 8 7 8 10
47 38 25 15 9 6 7 7 8 9 9 11 11 10 10 11 12 14 15 16 16 16 18 15 11 10 11 14 14 12 17 17 12 7 6 6 10 12 10 10 11 17 19
20 14 10 6 9 11 11 11 12 12 12 12 13 15 15 15 13 15 16 17 18 18 17 14 13 13 14 18 18 22 19 12 9 9 10 15 17 15 15 12 14 21 23
6 7 11 13 13 12 13 16 17 16 10 8 7 5 5 5 5 5 6 10 13 18 20 20 19 19 21 27 31 26 14 11 12 16 23 25 22 21 20 16 19 26 30
12 13 14 16 19 19 17 10 6 6 6 6 7 6 6 5 5 5 5 6 9 19 30 33 33 34 36 36 31 19 12 14 20 30 30 30 28 30 29 22 21 36 48
11 15 18 20 19 9 7 7 7 6 7 8 8 7 7 6 6 6 6 7 18 36 44 46 47 48 46 39 25 14 14 17 28 32 34 34 34 34 34 32 26 30 48

GFSGL_500_rhum_138.txt.gz
RH
31 16 32 65 39 30 42 41 36 36 38 35 34 29 23 21 23 26 28 19 13 14 17 31 41 43 42 60 75 76 61 62 70 69 68 66 75 87 91 88 86 80 74
97 65 38 39 57 45 37 37 38 36 37 33 26 27 31 20 14 29 25 23 29 28 46 58 54 46 48 66 83 82 70 62 63 67 78 91 85 82 79 77 77 81 78
75 70 83 27 43 46 49 48 49 42 40 37 31 30 32 32 27 34 51 51 53 50 55 64 59 69 71 74 86 88 74 71 75 77 81 72 64 70 75 81 78 72 72
76 86 84 65 32 37 43 43 44 50 52 46 41 34 28 28 35 47 52 48 50 69 76 70 79 89 98 90 97 71 56 52 53 54 46 76 84 84 74 62 64 57 56
78 66 91 94 94 42 24 42 43 43 49 49 40 36 37 36 38 39 49 66 80 77 84 92 96 94 66 45 35 31 32 28 39 38 50 86 89 86 80 75 79 73 69
26 75 82 78 77 74 38 23 27 38 44 47 52 54 43 43 43 52 63 76 83 84 85 97 95 36 32 40 65 75 71 72 56 57 65 57 80 82 86 82 85 87 82
43 29 41 55 70 79 88 61 52 30 31 28 38 41 48 49 51 54 65 66 78 76 75 56 45 44 67 87 76 68 79 88 91 86 82 78 79 80 84 79 78 78 80
42 45 44 33 37 69 77 78 63 54 39 23 21 28 38 42 49 61 76 78 87 73 49 50 70 85 85 74 76 70 70 77 74 78 82 88 97 90 80 78 83 88 85
50 50 41 35 44 48 57 72 86 69 62 48 35 31 38 45 56 75 93 85 64 58 65 87 91 96 93 86 79 80 68 84 84 84 94 89 96 90 86 97 93 90 94
35 27 27 18 32 38 59 74 78 96 96 95 65 52 57 63 76 81 90 73 73 81 92 95 91 81 89 97 95 85 96 96 91 86 91 97 99 98 97 95 94 89 94
36 20 24 16 20 31 38 52 76 71 91 91 91 64 68 68 75 87 81 79 93 91 95 89 90 91 96 88 94 96 98 96 92 95 99 97 98 96 98 97 94 80 73
26 20 17 22 21 20 34 42 100 83 87 90 94 97 93 86 76 82 71 72 81 81 83 87 98 94 97 92 98 92 97 99 96 97 95 89 88 84 77 66 70 45 23
29 22 20 45 42 46 50 58 70 81 91 100 99 98 97 97 95 87 81 77 82 93 100 93 97 98 98 99 100 100 99 96 92 81 58 38 27 15 11 6 4 4 4
64 30 40 48 66 89 90 98 99 100 96 99 98 99 97 97 96 95 96 96 97 98 98 97 96 97 96 96 96 95 90 65 37 16 6 4 4 3 3 3 3 3 4
84 76 64 71 90 97 97 97 93 97 99 99 97 97 97 97 96 97 97 96 96 96 96 97 96 96 94 88 71 34 9 5 4 4 4 4 4 4 3 4 4 4 5
94 88 94 94 95 96 97 98 98 95 97 97 97 97 96 97 96 96 96 97 96 96 96 96 93 75 45 15 6 5 5 5 4 3 3 3 4 5 6 7 7 7 8
95 97 98 93 94 96 97 97 97 97 97 97 97 97 96 97 96 96 96 96 95 94 82 56 21 10 8 6 6 6 4 4 3 4 5 5 7 7 8 8 8 8 8
97 97 97 93 95 95 96 96 96 96 96 96 96 96 95 96 95 96 95 92 70 28 8 8 9 7 7 8 8 6 5 4 4 6 6 7 6 6 8 9 9 9 7
95 96 97 98 95 89 76 86 88 93 95 91 92 92 83 62 57 44 31 13 8 8 8 8 8 8 10 10 10 8 6 6 7 7 7 6 8 12 14 11 8 7 5
83 81 89 95 92 73 84 90 67 23 21 22 15 15 18 15 9 8 9 11 10 9 8 8 8 10 12 12 9 8 7 9 11 9 9 12 18 17 12 8 7 7 7
70 67 74 76 83 92 82 45 15 12 14 11 8 8 8 8 9 9 9 11 11 12 12 13 13 13 12 10 10 13 16 17 15 14 17 19 19 12 8 7 6 6 12
78 59 36 38 38 29 26 23 8 7 8 9 9 9 10 10 10 11 12 13 12 10 10 11 12 15 20 21 21 20 18 16 16 22 25 22 13 9 8 7 8 16 22
50 39 32 24 18 12 6 7 8 10 12 12 11 10 10 11 9 6 4 4 4 4 5 5 6 10 18 23 30 31 23 23 27 32 30 19 10 8 8 13 23 28 28
30 20 16 10 6 7 10 12 12 12 12 13 13 9 6 5 5 5 5 5 5 5 5 5 6 10 21 29 30 30 30 32 34 35 23 12 9 9 14 31 36 35 33
8 8 7 9 12 12 13 16 18 16 11 7 6 7 7 6 6 6 6 6 6 6 6 7 7 15 32 35 33 33 36 40 42 25 12 10 10 15 25 40 41 39 35
11 11 10 11 13 15 18 17 10 7 7 7 7 8 7 7 6 6 7 7 7 8 9 9 12 32 43 44 45 42 41 40 17 10 11 11 17 23 35 44 45 39 38

GFSGL_500_rhum_144.txt.gz
RH
33 17 15 29 44 46 53 50 42 43 50 43 34 40 33 38 38 54 51 37 35 31 22 18 20 23 28 41 49 46 57 84 91 81 70 64 70 78 84 83 79 70 57
51 40 49 19 21 51 50 51 56 39 38 40 42 47 42 38 37 33 30 36 41 35 36 32 30 35 41 59 71 67 72 84 93 93 81 74 85 82 76 57 48 74 79
72 69 74 40 17 16 52 56 42 48 42 33 33 34 33 42 39 37 35 36 29 33 38 32 43 47 46 67 74 77 85 95 97 97 85 64 50 52 60 57 65 82 83
62 72 86 85 65 29 19 50 50 34 37 37 31 27 26 33 34 34 30 38 35 33 42 36 50 55 57 68 81 77 88 98 92 80 66 53 57 52 52 49 46 55 72
50 54 78 83 77 70 33 29 33 49 27 30 39 32 31 31 33 30 32 37 41 36 35 46 61 57 62 90 77 81 91 94 48 34 44 73 68 75 78 86 84 80 79
49 41 43 58 89 80 76 76 55 32 43 40 32 37 36 32 27 31 33 40 45 44 44 57 61 54 64 73 80 80 87 56 34 39 72 72 66 65 71 63 76 78 71
42 52 48 40 50 91 84 73 72 68 60 45 41 44 40 46 45 48 49 46 46 49 55 56 58 56 66 77 82 78 76 50 48 61 82 68 60 82 83 78 83 83 84
45 45 50 45 36 38 33 47 60 59 52 54 49 57 40 38 44 42 42 43 46 56 63 64 65 69 64 74 79 82 81 55 68 75 75 84 94 94 92 86 78 74 76
40 42 35 33 39 37 30 36 37 39 57 65 64 65 52 54 34 34 42 45 44 56 62 58 62 67 71 79 88 95 81 65 70 89 94 88 86 86 85 82 74 80 85
7 15 30 21 21 32 29 18 26 33 35 45 60 64 66 65 69 63 36 61 48 35 28 40 50 69 74 92 97 91 83 85 93 92 94 91 84 85 84 91 87 96 96
11 10 7 8 10 12 15 20 32 35 35 38 45 47 69 73 84 78 74 76 61 50 34 28 31 53 90 91 98 92 83 85 86 86 90 84 88 84 97 100 99 98 76
8 11 16 10 6 6 9 31 37 33 32 30 24 32 50 57 75 86 88 90 99 86 90 54 32 43 95 98 98 98 90 84 90 93 83 89 92 96 100 97 81 42 26
31 30 20 23 10 7 7 26 26 22 21 22 23 22 30 57 89 97 99 97 97 97 96 96 84 86 99 99 97 96 97 94 94 95 96 97 98 91 74 69 54 42 29
38 34 31 23 11 12 8 10 17 18 18 22 26 31 21 38 70 90 91 99 98 100 98 98 95 92 97 96 96 96 96 95 96 96 96 96 93 73 42 25 23 25 26
52 53 45 38 23 17 11 10 7 16 16 19 25 35 23 25 78 96 99 97 97 97 98 97 96 97 97 96 97 96 96 96 96 95 85 60 38 33 34 30 16 6 7
68 72 66 79 63 58 52 33 15 17 15 15 18 41 53 49 68 95 97 98 98 97 98 97 98 97 96 97 96 96 96 95 92 84 65 43 28 14 6 6 7 9 10
72 72 78 96 97 96 81 66 50 56 42 83 85 76 67 98 97 96 97 97 97 97 97 97 96 97 97 97 95 93 86 73 53 37 25 15 14 7 8 9 10 12 13
94 84 95 97 97 97 96 97 89 88 81 98 99 97 90 83 94 97 97 98 98 97 96 96 96 96 94 85 66 43 26 15 13 12 10 10 9 10 12 14 16 17 16
96 96 99 96 96 95 95 98 96 97 99 97 98 96 97 97 97 97 96 96 95 96 97 96 92 76 49 42 36 20 11 9 5 5 5 6 8 14 19 20 23 22 20
84 93 90 94 94 94 87 89 96 95 96 95 96 95 94 96 96 95 94 95 90 82 64 52 41 26 12 8 5 4 4 4 4 5 6 8 14 22 24 26 24 24 22
86 80 75 72 77 77 78 64 52 91 86 80 82 84 86 86 86 76 55 40 40 44 34 18 5 4 4 4 4 4 4 4 5 6 9 20 28 27 26 26 26 24 18
83 80 66 49 41 35 28 24 25 29 70 47 42 42 35 31 24 16 14 13 8 4 4 4 4 4 4 4 4 4 5 5 8 14 20 23 27 28 29 28 24 18 11
80 91 86 58 42 38 26 30 24 27 27 19 20 14 13 12 12 13 7 5 5 5 5 5 5 5 4 4 5 6 6 10 20 28 28 27 29 34 34 26 15 9 9
82 91 89 60 43 36 21 10 7 10 13 12 14 14 15 15 9 6 6 6 6 5 5 5 5 4 5 6 7 8 8 20 30 31 35 38 39 37 27 12 9 10 11
62 65 58 48 36 31 11 7 11 13 14 16 17 17 12 7 7 7 7 7 7 6 6 5 5 5 6 7 8 10 14 33 37 40 39 42 40 24 11 10 11 11 10
11 18 10 8 9 8 10 12 13 15 17 19 16 8 7 7 8 8 8 7 7 6 6 6 6 7 9 12 16 20 39 40 40 39 42 38 22 11 10 12 11 11 11

GFSGL_500_rhum_147.txt.gz
RH
44 39 24 15 29 42 42 50 52 54 56 52 54 43 38 30 28 36 54 57 50 55 38 30 16 15 19 23 23 39 55 57 78 86 80 75 68 67 72 77 72 62 57
47 60 41 18 16 18 37 40 47 49 51 51 50 52 47 34 37 40 41 59 53 41 35 42 38 38 39 41 43 50 70 71 86 93 88 83 86 81 81 68 62 59 67
63 77 71 56 57 66 36 25 43 55 61 51 48 51 50 43 48 47 39 39 37 35 40 48 38 50 47 51 56 62 78 89 87 85 96 93 90 76 50 59 60 68 69
54 54 61 70 70 68 45 18 18 40 56 62 51 44 42 46 50 41 38 46 46 35 47 36 38 53 59 58 69 76 74 81 83 89 95 96 61 56 77 68 76 84 80
40 50 52 56 58 62 64 67 32 22 39 54 56 51 41 36 32 29 34 40 37 29 33 49 44 49 74 65 73 76 86 82 82 87 90 40 49 64 76 77 78 78 81
25 29 39 49 58 58 78 77 81 69 42 41 50 52 40 45 36 28 32 32 27 28 32 42 58 54 49 64 70 60 62 81 83 80 75 57 53 59 79 70 67 80 82
23 28 27 40 49 51 64 89 98 72 40 56 56 48 36 34 46 43 36 31 25 26 32 40 50 53 67 64 61 58 64 76 82 82 78 67 50 68 84 79 86 90 85
15 16 23 29 38 42 39 51 87 82 69 75 77 66 50 42 43 45 43 42 39 40 48 47 53 59 63 68 66 67 66 64 68 84 91 87 59 66 84 89 86 83 84
10 11 12 26 38 37 35 36 35 48 63 76 83 85 80 73 54 46 49 43 39 40 48 49 52 62 64 70 70 69 67 69 81 94 97 93 69 79 95 90 91 83 80
8 7 9 9 23 37 36 31 33 34 33 35 39 68 74 72 77 73 96 82 40 46 50 57 56 52 60 58 47 50 56 70 79 97 98 95 82 82 85 87 82 69 72
6 8 9 8 8 8 15 30 25 21 28 28 22 38 39 59 74 83 88 96 76 78 64 57 62 59 62 49 38 38 42 51 74 89 98 97 93 88 93 92 82 88 98
45 26 9 8 7 8 7 7 9 12 20 25 14 24 43 51 67 82 85 90 92 97 94 93 93 75 76 47 49 54 29 32 44 95 95 94 94 96 95 95 95 97 88
49 28 14 15 15 16 10 7 7 8 8 8 8 24 31 35 30 36 43 67 82 87 87 99 99 94 96 97 92 94 85 68 88 97 97 96 95 96 96 96 94 84 48
32 23 27 29 28 30 28 24 18 9 7 7 8 15 21 24 28 21 25 41 49 73 89 87 98 97 93 97 96 96 97 98 96 96 95 97 96 96 96 82 82 55 32
40 45 43 36 26 24 24 24 18 16 12 8 8 16 18 19 19 18 34 53 52 63 78 94 96 97 96 97 97 96 95 97 96 96 96 96 95 90 69 54 43 34 22
42 36 42 49 46 36 21 51 37 17 12 11 7 11 17 21 24 19 37 43 56 97 91 80 97 97 97 97 97 97 97 96 96 96 95 90 79 64 52 39 23 11 9
43 47 58 78 64 83 74 73 65 40 73 70 17 9 8 11 19 18 32 57 86 75 98 96 98 97 96 97 97 96 96 95 95 85 64 53 49 32 18 12 10 10 12
62 59 68 76 89 94 94 88 92 96 72 77 78 20 15 16 48 98 98 97 81 96 100 98 96 96 96 96 96 95 93 84 67 43 32 19 8 6 6 7 10 15 19
67 67 72 72 87 87 92 95 92 95 95 96 90 97 99 96 98 98 96 99 100 96 96 96 96 95 94 87 62 49 38 35 29 16 6 4 4 6 10 17 20 20 18
68 65 78 84 74 78 84 65 81 92 96 96 96 97 96 97 99 97 96 96 97 97 96 95 94 84 52 35 32 28 17 6 4 4 5 8 12 17 18 18 20 24 26
71 77 75 81 65 40 40 29 43 85 88 83 93 97 96 96 96 97 95 95 94 93 85 54 43 40 34 18 6 5 4 4 4 3 8 18 20 19 22 26 29 28 24
75 77 81 73 84 37 30 42 20 38 49 55 57 58 72 80 78 80 86 75 46 39 27 20 20 23 15 7 4 4 4 4 4 4 9 21 22 23 25 26 29 23 20
50 68 80 88 72 50 40 24 18 37 26 27 20 21 27 42 40 46 33 18 13 8 8 6 5 4 4 4 4 4 5 5 7 16 27 25 25 24 25 26 23 19 16
48 50 78 91 78 53 42 21 9 10 15 17 17 20 22 17 19 10 8 7 7 6 5 5 4 4 4 4 5 6 8 11 14 27 30 27 27 29 24 21 21 14 9
25 50 61 67 54 38 35 15 8 13 15 16 16 16 16 13 7 6 7 6 6 6 5 5 5 5 5 7 10 18 21 24 36 34 31 29 27 21 21 23 12 9 9
7 9 22 20 9 10 10 9 12 15 16 16 17 17 12 8 8 8 7 6 6 6 5 5 6 7 8 11 27 27 32 40 37 36 31 26 25 25 23 12 10 10 10